www.pogodaiklimat.ru
ПОГОДА в Стейт Колледж
Время
и дата
02:35 06.12
02:55 06.12
03:15 06.12
03:35 06.12
03:55 06.12
04:15 06.12
04:35 06.12
04:55 06.12
05:15 06.12
05:35 06.12
05:53 06.12
06:53 06.12
07:53 06.12
08:41 06.12
08:53 06.12
09:05 06.12
09:53 06.12
10:53 06.12
11:53 06.12
12:53 06.12
13:53 06.12
14:53 06.12
15:53 06.12
16:53 06.12
17:53 06.12
18:53 06.12
19:53 06.12
20:53 06.12
21:53 06.12
22:15 06.12
22:35 06.12
22:55 06.12
23:15 06.12
23:35 06.12
23:55 06.12
00:15 07.12
00:35 07.12
00:55 07.12
01:15 07.12
01:35 07.12
01:55 07.12
02:15 07.12
02:35 07.12
02:55 07.12
03:15 07.12
03:35 07.12
03:55 07.12
04:15 07.12
Ветер
(напр.,м/с)
Видим. Явления Облачность Т
(С)
Тd
(С)
f
(%)
Тe
(С)
Тes
(С)
Комфортность P
(гПа)
Po
(гПа)
Тmin
(С)
Tmax
(С)
R
(мм)
R24
(мм)
S
(см)
штиль 0 16 км 10/0 2700 m
[Ac]
+2.4 -5.1 58 +2 +2 978.8
штиль 0 16 км 10/0 2700 m
[Ac]
+2.9 -5.2 55 +2 +2 978.8
В 2 16 км 10/8 1110 m
[Ac]
+2.5 -5.0 58 0 0 978.8
ЮВ 2 16 км 10/8 1110 m
[Ac]
+2.7 -4.6 59 0 0 978.8
штиль 0 16 км 10/8 1110 m
[Ac]
+3.1 -4.8 56 +3 +3 978.4
штиль 0 16 км слабый дождь 10/10 1110 m
[Ns]
+3.5 -4.0 58 +3 +3 978.1
штиль 0 16 км 10/10 1050 м +3.3 -3.7 60 +3 +3 977.8
штиль 0 16 км слабый дождь 10/10 1050 m
[Ns]
+3.5 -2.8 63 +3 +3 978.1
штиль 0 16 км 10/10 1050 м +3.7 -2.0 66 +3 +3 978.4
штиль 0 16 км слабая морось 10/10 990 m
[St]
+3.1 -1.7 71 +2 +2 978.4
Ю 2 16 км 10/10 930 м +3.0 -1.0 75 0 0 978.1
Ю 3 11 км 10/10 600 м +4.0 +1.0 81 0 0 978.8
Ю 3 6 км слабая морось, дымка 10/10 540 m
[St]
+4.0 +2.0 87 0 0 978.8
Ю 3 3 км дымка 10/10 420 м +3.0 +3.0 100 -1 -1 978.8
З 2 4 км дымка 10/10 420 м +3.0 +3.0 100 0 0 979.1
З 2 6 км дымка 10/10 210 м +3.0 +3.0 100 0 0 979.1
ЮЗ 3 6 км слабая морось, дымка 10/10 240 m
[St]
+4.0 +4.0 100 0 0 979.1
ЮЗ 2 6 км дымка 10/10 240 м +4.0 +4.0 100 +1 +1 979.1
З 2 6 км дымка 10/10 210 м +5.0 +5.0 100 +2 +2 978.4
Ю 2 6 км дымка 10/10 240 м +5.0 +5.0 100 +2 +2 977.8
штиль 0 6 км дымка 10/10 240 м +5.0 +5.0 100 +4 +4 977.5
штиль 0 6 км дымка 10/10 240 м +5.0 +5.0 100 +4 +4 977.5
штиль 0 5 км дымка 10/10 180 м +5.0 +5.0 100 +4 +4 977.5
штиль 0 4 км слабый дождь, дымка 10/10 330 m
[Ns]
+5.0 +5.0 100 +4 +4 977.8
штиль 0 5 км слабый дождь, дымка 10/10 330 m
[Ns]
+4.0 +4.0 100 +3 +3 977.5
штиль 0 2 км сильный дождь, дымка 10/10 330 m
[Ns]
+5.0 +5.0 100 +4 +4 977.5
штиль 0 3 км дождь, дымка 10/10 330 m
[Ns]
+5.0 +5.0 100 +4 +4 977.5
нст 2 3 км слабый дождь, дымка 10/10 180 m
[Ns]
+5.0 +5.0 100 +2 +2 977.5
штиль 0 3 км дымка 10/10 300 м +5.0 +5.0 100 +4 +4 977.1
З 2 5 км дымка 10/10 300 м +4.8 +4.8 100 +2 +2 977.1
штиль 0 5 км дымка 10/10 300 м +4.7 +4.7 100 +3 +3 977.1
З 2 6 км дымка 10/10 240 м +4.8 +4.8 100 +2 +2 977.5
З 2 8 км дымка 10/10 240 м +5.0 +5.0 100 +2 +2 977.5
З 2 8 км дымка 10/10 240 м +5.0 +5.0 100 +2 +2 977.1
штиль 0 8 км дымка 10/10 180 м +5.0 +5.0 100 +4 +4 977.5
штиль 0 6 км дождь 10/10 120 m
[Ns]
+5.0 +5.0 100 +4 +4 977.5
штиль 0 6 км дымка 10/10 120 м +4.9 +4.9 100 +4 +4 977.5
З 2 8 км дымка 10/10 120 м +5.0 +5.0 100 +2 +2 977.5 +4.3 +5.0 3.3
ЮЗ 2 6 км дымка 10/10 180 м +5.1 +5.1 100 +2 +2 977.5
штиль 0 6 км дымка 10/10 180 м +5.0 +5.0 100 +4 +4 977.1
штиль 0 5 км дымка 10/10 240 м +4.9 +4.9 100 +4 +4 977.1
З 2 6 км дымка 10/10 240 м +5.2 +5.2 100 +2 +2 977.5
штиль 0 6 км дымка 10/10 300 м +5.3 +5.3 100 +4 +4 977.8
штиль 0 5 км дымка 10/10 300 м +5.1 +5.1 100 +4 +4 977.8
штиль 0 1 км дымка 10/10 300 м +5.0 +5.0 100 +4 +4 977.5
Ю 2 4 км дымка 10/10 240 м +5.1 +5.1 100 +2 +2 977.5
штиль 0 5 км дымка 10/10 240 м +5.2 +5.2 100 +4 +4 977.1
штиль 0 5 км дымка 10/10 240 м +5.5 +5.5 100 +4 +4 977.1
Местоположение метеостанции University Park Airport: широта 40.8534 долгота -77.8401 высота над уровнем моря 362 м.
В архиве по умолчанию представлена погода в Стейт Колледж за последние 1-2 суток. Обновление информации о фактической погоде в базе происходит ежечасно! Архивные данные за месяц целиком и за предыдущие месяцы Вы можете получить, выбрав интересующий диапазон дат из раскрывающегося списка и нажав кнопку "Ввод!".
Внимание! Архив погоды МЕТАР в базе сайта по станциям, не включенным в климатический монитор, хранится не более 60 дней. Нет смысла пытаться выбрать более раннюю дату.
*Определитесь, кто Вы:
Внимание! Время в таблицах - местное (без учета летнего времени). Для получения всемирного времени необходимо вычесть поправку, которая равна -5 ч.
Смотрите также архив погоды в соседних городах и на ближайших метеорологических станциях:
Партнеры нашего сайта:      
Пояснения к столбцам:
  • Ветер - указаны скорость ветра в м/с - средняя за 10 мин, порывы в срок и между сроками (в фигурных скобках) и направление, откуда дует ветер: С - северный,
  • СВ - северо-восточный, В - восточный, ЮВ - юго-восточный, Ю - южный, ЮЗ - юго-западный, З - западный, СЗ - северо-западный.
  • Видимость - горизонтальная дальность видимости в метрах или километрах. При видимости от 1 до 10 км при отсутствии осадков обычно наблюдается дымка, при ухудшении видимости до 1 км и менее - туман. В сухую погоду видимость может ухудшаться дымом, пылью или мглою.
  • Явления - указаны атмосферные явления, наблюдавшиеся в срок или в последний час перед сроком; фигурными скобками обозначены явления, наблюдавшиеся между сроками (за 1-3 часа до срока); квадратными скобками обозначены град или гололедные отложения с указанием их диаметра в мм.
  • Облачность - указаны через наклонную черту общая и нижняя облачность в баллах и высота нижней границы облаков в метрах; квадратными скобками обозначены формы облаков: Ci - перистые, Cs - перисто-слоистые, Cc - перисто-кучевые, Ac - высококучевые, As - высокослоистые, Sc - слоисто-кучевые, Ns - слоисто-дождевые, Cu - кучевые, Cb - кучево-дождевые. Подробнее классификацию облаков см. в Атласе облаков (PDF).
  • T - Температура воздуха - температура, измеренная на высоте 2 м над землей.
  • Td - Температура точки росы - температура, при понижении до которой содержащийся в воздухе водяной пар достигнет насыщения.
  • f - Относительная влажность воздуха - влажноcть воздуха, измеренная на высоте 2 м над землей.
  • Te - Эффективная температура - температура, которую ощущает одетый по сезону человек в тени. Характеристика душности погоды. При расчете учитывается влияние влажности воздуха и скорости ветра на теплоощущения человека.
  • Tes - Эффективная температура на солнце - температура, которую ощущает человек, с поправкой на солнечный нагрев. Характеристика знойности погоды. Зависит от высоты солнца над горизонтом, облачности и скорости ветра. Ночью, в пасмурную погоду, а также при ветре 12 м/с и более поправка равна нулю.
  • P - Атмосферное давление - приведенное к уровню моря атмосферное давление.
  • Po - Атмосферное давление - измеренное на уровне метеостанции атмосферное давление.
  • Tmin - Минимальная температура - минимум температуры воздуха на высоте 2 м над землей.
  • Tmax - Максимальная температура - максимум температуры воздуха на высоте 2 м над землей.
  • R - Количество осадков - Количество выпавших осадков за период времени, мм. При наведении курсора мыши на число - период времени, за который выпало указанное количество осадков.
  • R24 - Количество осадков - Количество выпавших осадков за 24 часа, мм.
  • S - Снежный покров - Высота снежного покрова, см. При наведении курсора мыши на число - состояние снежного покрова и степень покрытия местности в баллах.